DLH5KD EDXW-EDDF

Flight info

Callsign DLH5KD
Flight time 1h 3m
Altitude 36000
Route OLDIP1B OLDIP DCT BADOS DCT OMWEG Y348 ELSOB DCT RIMET T157 KOKEB/N0366F230 T157 KERAX KERAX5D
Aircraft A319/M-SDE2E3FGIJ1LORWXYZ/HB1

Departure

Time 2026-05-08 15:18
Airport Westerland Sylt Airport (EDXW)

Arrival

Time 2026-05-08 16:21
Airport Frankfurt Main Airport (EDDF)
Time Latitude Longitude Altitude Speed Heading
2026-05-08 14:54 54.91386 8.33117 28 ft 0 kts 270°
2026-05-08 15:09 54.91386 8.33119 28 ft 1 kts 270°
2026-05-08 15:09 54.91386 8.33146 28 ft 3 kts 263°
2026-05-08 15:10 54.91389 8.33180 28 ft 3 kts 250°
2026-05-08 15:10 54.91398 8.33211 28 ft 3 kts 228°
2026-05-08 15:10 54.91412 8.33231 28 ft 3 kts 190°
2026-05-08 15:10 54.91426 8.33230 28 ft 1 kts 151°
2026-05-08 15:11 54.91427 8.33229 28 ft 0 kts 150°
2026-05-08 15:12 54.91420 8.33236 28 ft 3 kts 150°
2026-05-08 15:12 54.91380 8.33250 28 ft 8 kts 178°
2026-05-08 15:12 54.91308 8.33220 28 ft 13 kts 209°
2026-05-08 15:13 54.91218 8.33179 28 ft 13 kts 180°
2026-05-08 15:13 54.91120 8.33179 27 ft 16 kts 180°
2026-05-08 15:13 54.91008 8.33143 29 ft 16 kts 207°
2026-05-08 15:13 54.90914 8.33142 27 ft 14 kts 150°
2026-05-08 15:14 54.90827 8.33203 31 ft 12 kts 165°
2026-05-08 15:14 54.90754 8.33222 33 ft 11 kts 175°
2026-05-08 15:14 54.90670 8.33232 33 ft 14 kts 176°
2026-05-08 15:14 54.90558 8.33247 32 ft 18 kts 172°
2026-05-08 15:15 54.90426 8.33326 30 ft 21 kts 149°
2026-05-08 15:15 54.90317 8.33501 29 ft 21 kts 125°
2026-05-08 15:15 54.90259 8.33737 29 ft 21 kts 100°
2026-05-08 15:15 54.90246 8.33905 29 ft 21 kts 98°
2026-05-08 15:16 54.90238 8.34156 29 ft 21 kts 84°
2026-05-08 15:16 54.90261 8.34394 31 ft 20 kts 80°
2026-05-08 15:16 54.90284 8.34619 33 ft 18 kts 79°
2026-05-08 15:16 54.90306 8.34827 36 ft 17 kts 80°
2026-05-08 15:17 54.90327 8.35024 37 ft 16 kts 77°
2026-05-08 15:17 54.90392 8.35169 39 ft 15 kts 18°
2026-05-08 15:17 54.90486 8.35085 38 ft 22 kts 325°
2026-05-08 15:17 54.90834 8.34655 35 ft 97 kts 324°
2026-05-08 15:18 54.91545 8.33776 97 ft 147 kts 326°
2026-05-08 15:18 54.92354 8.32775 862 ft 138 kts 327°
2026-05-08 15:18 54.93160 8.31776 1377 ft 150 kts 328°
2026-05-08 15:18 54.94073 8.30646 1787 ft 172 kts 328°
2026-05-08 15:19 54.95112 8.29365 2174 ft 194 kts 327°
2026-05-08 15:19 54.96279 8.27923 2530 ft 219 kts 327°
2026-05-08 15:19 54.97537 8.26343 3311 ft 224 kts 324°
2026-05-08 15:19 54.98460 8.24165 4152 ft 231 kts 285°
2026-05-08 15:20 54.98387 8.21414 5000 ft 232 kts 246°
2026-05-08 15:20 54.97604 8.18980 5894 ft 230 kts 231°
2026-05-08 15:20 54.96633 8.16765 6771 ft 231 kts 227°
2026-05-08 15:20 54.95590 8.14634 7586 ft 231 kts 219°
2026-05-08 15:21 54.94201 8.13322 8397 ft 228 kts 191°
2026-05-08 15:21 54.92622 8.13178 9098 ft 236 kts 168°
2026-05-08 15:21 54.91074 8.14378 9515 ft 258 kts 142°
2026-05-08 15:21 54.89629 8.16427 10047 ft 276 kts 140°
2026-05-08 15:22 54.88129 8.18593 10763 ft 284 kts 141°
2026-05-08 15:22 54.86595 8.20800 11544 ft 289 kts 141°
2026-05-08 15:22 54.85030 8.23037 12356 ft 293 kts 142°
2026-05-08 15:22 54.83439 8.25304 13140 ft 299 kts 142°
2026-05-08 15:23 54.81759 8.27458 13907 ft 303 kts 149°
2026-05-08 15:23 54.79958 8.29415 14616 ft 308 kts 149°
2026-05-08 15:23 54.78132 8.31400 15322 ft 312 kts 150°
2026-05-08 15:23 54.76281 8.33408 16013 ft 317 kts 150°
2026-05-08 15:24 54.74403 8.35451 16714 ft 321 kts 150°
2026-05-08 15:24 54.72502 8.37527 17421 ft 325 kts 150°
2026-05-08 15:24 54.70598 8.39673 18106 ft 331 kts 145°
2026-05-08 15:24 54.68901 8.42411 18741 ft 338 kts 131°
2026-05-08 15:25 54.67580 8.45792 19353 ft 343 kts 118°
2026-05-08 15:25 54.66641 8.49601 19973 ft 346 kts 112°
2026-05-08 15:25 54.65743 8.53477 20584 ft 349 kts 112°
2026-05-08 15:25 54.64827 8.57387 21196 ft 353 kts 112°
2026-05-08 15:26 54.63894 8.61327 21815 ft 356 kts 113°
2026-05-08 15:26 54.62947 8.65303 22420 ft 360 kts 113°
2026-05-08 15:26 54.61874 8.69213 23032 ft 362 kts 122°
2026-05-08 15:26 54.60395 8.72766 23375 ft 372 kts 133°
2026-05-08 15:27 54.58560 8.76029 23521 ft 387 kts 137°
2026-05-08 15:27 54.56625 8.79382 23675 ft 402 kts 136°
2026-05-08 15:27 54.54635 8.82835 24007 ft 409 kts 136°
2026-05-08 15:27 54.52626 8.86336 24447 ft 413 kts 136°
2026-05-08 15:28 54.50601 8.89878 24894 ft 416 kts 136°
2026-05-08 15:28 54.48562 8.93444 25349 ft 419 kts 136°
2026-05-08 15:28 54.46509 8.97032 25796 ft 422 kts 136°
2026-05-08 15:28 54.44441 9.00640 26222 ft 426 kts 136°
2026-05-08 15:29 54.42353 9.04273 26653 ft 429 kts 136°
2026-05-08 15:29 54.40246 9.07918 27044 ft 432 kts 136°
2026-05-08 15:29 54.38101 9.11558 27424 ft 435 kts 140°
2026-05-08 15:29 54.35715 9.14753 27838 ft 436 kts 149°
2026-05-08 15:30 54.33109 9.17415 28252 ft 437 kts 153°
2026-05-08 15:30 54.30465 9.20035 28669 ft 440 kts 153°
2026-05-08 15:30 54.27805 9.22675 29060 ft 443 kts 152°
2026-05-08 15:30 54.25132 9.25337 29451 ft 446 kts 152°
2026-05-08 15:31 54.22440 9.28023 29845 ft 450 kts 152°
2026-05-08 15:31 54.19728 9.30724 30211 ft 452 kts 153°
2026-05-08 15:31 54.17001 9.33429 30526 ft 455 kts 153°
2026-05-08 15:31 54.14255 9.36144 30850 ft 457 kts 153°
2026-05-08 15:32 54.11495 9.38869 31161 ft 459 kts 153°
2026-05-08 15:32 54.08731 9.41598 31500 ft 460 kts 153°
2026-05-08 15:32 54.05954 9.44333 31816 ft 462 kts 153°
2026-05-08 15:32 54.03159 9.47028 32220 ft 460 kts 156°
2026-05-08 15:33 54.00233 9.49143 32670 ft 455 kts 165°
2026-05-08 15:33 53.97189 9.50482 33127 ft 450 kts 173°
2026-05-08 15:33 53.94104 9.51237 33562 ft 447 kts 176°
2026-05-08 15:33 53.91030 9.51949 34015 ft 446 kts 176°
2026-05-08 15:34 53.87960 9.52661 34412 ft 445 kts 175°
2026-05-08 15:34 53.84898 9.53377 34745 ft 444 kts 175°
2026-05-08 15:34 53.81838 9.54094 35086 ft 444 kts 175°
2026-05-08 15:34 53.78780 9.54807 35391 ft 444 kts 175°
2026-05-08 15:35 53.75721 9.55520 35676 ft 444 kts 175°
2026-05-08 15:35 53.72661 9.56235 35955 ft 444 kts 175°
2026-05-08 15:35 53.69595 9.56949 36128 ft 445 kts 175°
2026-05-08 15:35 53.66544 9.57655 36171 ft 441 kts 175°
2026-05-08 15:36 53.60497 9.59188 36156 ft 439 kts 173°
2026-05-08 15:36 53.54473 9.60993 36357 ft 441 kts 172°
2026-05-08 15:37 53.51454 9.61918 36619 ft 442 kts 172°
2026-05-08 15:37 53.48429 9.62832 36862 ft 442 kts 173°
2026-05-08 15:37 53.45398 9.63727 37093 ft 443 kts 173°
2026-05-08 15:37 53.42362 9.64608 37167 ft 443 kts 173°
2026-05-08 15:38 53.36283 9.66349 37169 ft 443 kts 173°
2026-05-08 15:38 53.30211 9.68081 37170 ft 443 kts 173°
2026-05-08 15:39 53.24134 9.69808 37170 ft 443 kts 173°
2026-05-08 15:39 53.18060 9.71539 37171 ft 443 kts 173°
2026-05-08 15:40 53.11982 9.73259 37172 ft 443 kts 173°
2026-05-08 15:40 53.05903 9.74979 37170 ft 443 kts 173°
2026-05-08 15:41 52.99826 9.76707 37174 ft 443 kts 173°
2026-05-08 15:41 52.93748 9.78424 37172 ft 443 kts 173°
2026-05-08 15:42 52.87667 9.80129 37176 ft 443 kts 173°
2026-05-08 15:42 52.81627 9.81815 37162 ft 443 kts 173°
2026-05-08 15:43 52.75547 9.83524 37171 ft 443 kts 173°
2026-05-08 15:43 52.69464 9.85229 37176 ft 443 kts 173°
2026-05-08 15:44 52.63382 9.86920 37176 ft 443 kts 173°
2026-05-08 15:44 52.57294 9.88595 37167 ft 443 kts 173°
2026-05-08 15:45 52.51211 9.90274 37173 ft 443 kts 173°
2026-05-08 15:45 52.45121 9.91825 37171 ft 441 kts 181°
2026-05-08 15:46 52.39056 9.91041 37176 ft 437 kts 189°
2026-05-08 15:46 52.33013 9.89943 37167 ft 437 kts 189°
2026-05-08 15:47 52.26981 9.88853 36887 ft 434 kts 189°
2026-05-08 15:47 52.23985 9.88318 36703 ft 432 kts 189°
2026-05-08 15:47 52.20995 9.87786 36526 ft 432 kts 189°
2026-05-08 15:48 52.15030 9.86725 36163 ft 431 kts 189°
2026-05-08 15:48 52.12053 9.86199 36161 ft 430 kts 189°
2026-05-08 15:49 52.06093 9.85146 36163 ft 431 kts 189°
2026-05-08 15:49 52.00137 9.84107 36165 ft 431 kts 189°
2026-05-08 15:50 51.94180 9.83064 36171 ft 430 kts 189°
2026-05-08 15:50 51.88226 9.82020 36165 ft 430 kts 189°
2026-05-08 15:51 51.82273 9.80981 36159 ft 430 kts 189°
2026-05-08 15:51 51.76317 9.79950 36164 ft 430 kts 189°
2026-05-08 15:52 51.70363 9.78920 36173 ft 430 kts 189°
2026-05-08 15:52 51.64413 9.77880 36168 ft 430 kts 189°
2026-05-08 15:53 51.58464 9.76851 36161 ft 430 kts 189°
2026-05-08 15:53 51.52519 9.75833 36166 ft 430 kts 189°
2026-05-08 15:54 51.46577 9.74827 36166 ft 429 kts 189°
2026-05-08 15:54 51.40636 9.73807 36166 ft 429 kts 189°
2026-05-08 15:55 51.34606 9.72763 36161 ft 443 kts 189°
2026-05-08 15:55 51.28389 9.71698 36151 ft 455 kts 189°
2026-05-08 15:55 51.25237 9.71161 36152 ft 456 kts 188°
2026-05-08 15:56 51.18968 9.69666 35790 ft 454 kts 201°
2026-05-08 15:56 51.16158 9.67505 35140 ft 446 kts 216°
2026-05-08 15:56 51.13804 9.64338 34455 ft 442 kts 225°
2026-05-08 15:57 51.11586 9.60985 33865 ft 438 kts 225°
2026-05-08 15:57 51.09391 9.57674 33160 ft 431 kts 224°
2026-05-08 15:57 51.07219 9.54417 32364 ft 427 kts 224°
2026-05-08 15:57 51.05068 9.51210 31585 ft 422 kts 224°
2026-05-08 15:58 51.03653 9.49108 31076 ft 419 kts 224°
2026-05-08 15:58 51.01531 9.45968 30315 ft 415 kts 224°
2026-05-08 15:58 50.99427 9.42858 29466 ft 411 kts 224°
2026-05-08 15:58 50.97347 9.39782 28697 ft 407 kts 224°
2026-05-08 15:59 50.95276 9.36720 28248 ft 406 kts 224°
2026-05-08 15:59 50.93218 9.33680 27797 ft 403 kts 224°
2026-05-08 15:59 50.91172 9.30660 27353 ft 400 kts 224°
2026-05-08 15:59 50.89142 9.27666 26912 ft 397 kts 224°
2026-05-08 16:00 50.87124 9.24699 26479 ft 395 kts 224°
2026-05-08 16:00 50.85118 9.21755 26055 ft 392 kts 224°
2026-05-08 16:00 50.83128 9.18835 25614 ft 389 kts 224°
2026-05-08 16:00 50.81152 9.15934 25173 ft 386 kts 224°
2026-05-08 16:01 50.79190 9.13056 24710 ft 384 kts 224°
2026-05-08 16:01 50.77239 9.10197 24253 ft 381 kts 224°
2026-05-08 16:01 50.75299 9.07360 23789 ft 379 kts 224°
2026-05-08 16:01 50.73371 9.04547 23265 ft 376 kts 224°
2026-05-08 16:02 50.71455 9.01751 22806 ft 374 kts 224°
2026-05-08 16:02 50.69551 8.98974 22332 ft 372 kts 224°
2026-05-08 16:02 50.67657 8.96217 21870 ft 369 kts 224°
2026-05-08 16:02 50.65773 8.93484 21418 ft 368 kts 224°
2026-05-08 16:03 50.63893 8.90763 20965 ft 366 kts 224°
2026-05-08 16:03 50.62025 8.88062 20514 ft 364 kts 224°
2026-05-08 16:03 50.60167 8.85376 20067 ft 362 kts 224°
2026-05-08 16:03 50.58316 8.82700 19624 ft 360 kts 224°
2026-05-08 16:04 50.56476 8.80043 19184 ft 358 kts 224°
2026-05-08 16:04 50.54643 8.77401 18741 ft 357 kts 224°
2026-05-08 16:04 50.52816 8.74773 18303 ft 355 kts 224°
2026-05-08 16:04 50.51002 8.72160 17851 ft 353 kts 224°
2026-05-08 16:05 50.49196 8.69555 17430 ft 351 kts 224°
2026-05-08 16:05 50.47404 8.66967 17004 ft 349 kts 224°
2026-05-08 16:05 50.45618 8.64398 16591 ft 347 kts 224°
2026-05-08 16:05 50.43842 8.61851 16180 ft 345 kts 224°
2026-05-08 16:06 50.42075 8.59320 15768 ft 343 kts 224°
2026-05-08 16:06 50.40315 8.56806 15368 ft 341 kts 224°
2026-05-08 16:06 50.38563 8.54307 14963 ft 339 kts 224°
2026-05-08 16:06 50.36823 8.51826 14553 ft 338 kts 224°
2026-05-08 16:07 50.35090 8.49358 14156 ft 336 kts 224°
2026-05-08 16:07 50.33364 8.46905 13727 ft 334 kts 223°
2026-05-08 16:07 50.31648 8.44469 13287 ft 332 kts 223°
2026-05-08 16:07 50.29946 8.42055 12911 ft 330 kts 223°
2026-05-08 16:08 50.28252 8.39651 12507 ft 327 kts 223°
2026-05-08 16:08 50.26578 8.37268 12193 ft 321 kts 223°
2026-05-08 16:08 50.24961 8.34975 12025 ft 306 kts 223°
2026-05-08 16:08 50.23435 8.32815 11652 ft 294 kts 223°
2026-05-08 16:09 50.21923 8.30676 11246 ft 285 kts 223°
2026-05-08 16:09 50.20499 8.28661 10856 ft 277 kts 223°
2026-05-08 16:09 50.19094 8.26671 10505 ft 268 kts 223°
2026-05-08 16:09 50.17745 8.24766 10232 ft 256 kts 223°
2026-05-08 16:10 50.16452 8.22946 9961 ft 247 kts 223°
2026-05-08 16:10 50.15183 8.21160 9673 ft 244 kts 223°
2026-05-08 16:10 50.13923 8.19388 9312 ft 244 kts 223°
2026-05-08 16:10 50.12665 8.17620 8935 ft 244 kts 223°
2026-05-08 16:11 50.11409 8.15853 8565 ft 243 kts 223°
2026-05-08 16:11 50.10165 8.14080 8212 ft 242 kts 224°
2026-05-08 16:11 50.08938 8.12298 7857 ft 240 kts 224°
2026-05-08 16:11 50.07719 8.10522 7506 ft 240 kts 224°
2026-05-08 16:12 50.06505 8.08748 7158 ft 239 kts 224°
2026-05-08 16:12 50.05300 8.06980 6816 ft 238 kts 224°
2026-05-08 16:12 50.04099 8.05216 6473 ft 237 kts 224°
2026-05-08 16:12 50.02900 8.03456 6106 ft 236 kts 224°
2026-05-08 16:13 50.01707 8.01706 5747 ft 236 kts 224°
2026-05-08 16:13 50.00505 7.99978 5385 ft 235 kts 218°
2026-05-08 16:13 49.99022 7.99014 5074 ft 232 kts 184°
2026-05-08 16:13 49.97460 7.99503 5026 ft 234 kts 150°
2026-05-08 16:14 49.96307 8.01252 5028 ft 235 kts 117°
2026-05-08 16:14 49.95751 8.03637 5027 ft 236 kts 105°
2026-05-08 16:14 49.95328 8.06102 5025 ft 236 kts 104°
2026-05-08 16:14 49.94921 8.08572 5024 ft 236 kts 104°
2026-05-08 16:15 49.94622 8.11076 5019 ft 236 kts 89°
2026-05-08 16:15 49.94946 8.13545 5024 ft 232 kts 69°
2026-05-08 16:15 49.95501 8.15801 5002 ft 214 kts 68°
2026-05-08 16:15 49.96010 8.17869 4901 ft 197 kts 69°
2026-05-08 16:16 49.96487 8.19822 4615 ft 189 kts 69°
2026-05-08 16:16 49.96937 8.21673 4348 ft 182 kts 69°
2026-05-08 16:16 49.97378 8.23491 4097 ft 179 kts 68°
2026-05-08 16:16 49.97815 8.25291 3836 ft 177 kts 68°
2026-05-08 16:17 49.98255 8.27103 3580 ft 177 kts 68°
2026-05-08 16:17 49.98541 8.28286 3419 ft 176 kts 68°
2026-05-08 16:17 49.99111 8.30640 3079 ft 175 kts 68°
2026-05-08 16:17 49.99544 8.32429 2822 ft 174 kts 68°
2026-05-08 16:18 49.99962 8.34159 2573 ft 172 kts 68°
2026-05-08 16:18 50.00381 8.35892 2332 ft 171 kts 68°
2026-05-08 16:18 50.00798 8.37623 2089 ft 170 kts 67°
2026-05-08 16:18 50.01212 8.39339 1845 ft 169 kts 67°
2026-05-08 16:19 50.01606 8.40975 1606 ft 153 kts 67°
2026-05-08 16:19 50.01961 8.42452 1386 ft 140 kts 68°
2026-05-08 16:19 50.02295 8.43839 1183 ft 135 kts 68°
2026-05-08 16:19 50.02624 8.45194 986 ft 133 kts 67°
2026-05-08 16:20 50.02946 8.46534 792 ft 132 kts 68°
2026-05-08 16:20 50.03263 8.47870 605 ft 131 kts 68°
2026-05-08 16:20 50.03583 8.49201 416 ft 131 kts 69°
2026-05-08 16:20 50.03899 8.50518 326 ft 128 kts 68°
2026-05-08 16:21 50.04178 8.51684 335 ft 94 kts 69°
2026-05-08 16:21 50.04357 8.52430 351 ft 62 kts 71°
2026-05-08 16:21 50.04371 8.53018 353 ft 35 kts 99°
2026-05-08 16:21 50.04349 8.53241 362 ft 17 kts 92°
2026-05-08 16:22 50.04372 8.53391 372 ft 12 kts 70°
2026-05-08 16:22 50.04395 8.53503 375 ft 12 kts 79°
2026-05-08 16:22 50.04405 8.53660 375 ft 18 kts 84°
2026-05-08 16:22 50.04419 8.53859 375 ft 19 kts 83°
2026-05-08 16:23 50.04432 8.54065 376 ft 20 kts 84°
2026-05-08 16:23 50.04446 8.54280 375 ft 20 kts 84°
2026-05-08 16:23 50.04447 8.54519 367 ft 24 kts 102°
2026-05-08 16:23 50.04347 8.54741 359 ft 20 kts 144°
2026-05-08 16:24 50.04217 8.54825 355 ft 14 kts 161°
2026-05-08 16:24 50.04129 8.54876 354 ft 9 kts 159°
2026-05-08 16:24 50.04113 8.54885 354 ft 1 kts 159°
2026-05-08 16:24 50.04105 8.54890 350 ft 1 kts 159°
2026-05-08 16:25 50.04093 8.54896 354 ft 2 kts 159°
2026-05-08 16:25 50.04078 8.54906 351 ft 3 kts 160°
2026-05-08 16:25 50.04050 8.54922 353 ft 5 kts 159°
2026-05-08 16:25 50.04018 8.54972 355 ft 8 kts 108°
2026-05-08 16:26 50.04034 8.55080 353 ft 13 kts 69°
2026-05-08 16:26 50.04072 8.55241 356 ft 18 kts 69°
2026-05-08 16:26 50.04120 8.55439 354 ft 20 kts 70°
2026-05-08 16:26 50.04170 8.55649 357 ft 21 kts 70°
2026-05-08 16:27 50.04220 8.55858 353 ft 21 kts 70°
2026-05-08 16:27 50.04320 8.55942 359 ft 19 kts 339°
2026-05-08 16:27 50.04448 8.55920 357 ft 19 kts 15°
2026-05-08 16:27 50.04565 8.56010 356 ft 19 kts 62°
2026-05-08 16:28 50.04613 8.56210 357 ft 20 kts 69°
2026-05-08 16:28 50.04663 8.56418 361 ft 21 kts 69°
2026-05-08 16:28 50.04732 8.56608 360 ft 10 kts 50°
2026-05-08 16:28 50.04791 8.56594 359 ft 9 kts 340°
2026-05-08 16:29 50.04808 8.56584 356 ft 0 kts 340°